Content
SEND FEEDBACK

Daily
Averages
Monthly
Summary
United States of America

AGANA, GUAM


Home > North America > United States > Guam
Elevation: 246 feet     Latitude: 13 29N     Longitude: 144 48E

WEATHER
 
SELECT A DAY
Number of Records: 209,106;   Date Range: 1/1/95 - 8/12/14
 
SHARE

PRINT THIS DATA

[ ← Previous Day ]
WEATHER ALMANAC - JANUARY 14, 2013
[ Next Day → ]
[ °C ]   °F
Weather ElementAverageHighLow
Temperature81.1 °F84.2 °F (1:31 pm)78.1 °F (3:54 am)
Dewpoint71.9 °F73.4 °F (1:31 pm)71.1 °F (12:54 pm)
Humidity73.8 %84 % (3:54 am)65 % (12:54 pm)
Barometer29.85 in29.88 in (8:54 am)29.81 in (2:54 pm)
Wind Speed11.2 mph18.4 mph (9:54 am)
Wind Gust25.3 mph (10:54 am)
Weather ElementAverage
Visibility10 mi
Wind DirectionE (89.6 °)

Weather ElementTotal
Precipitation0.01 in
Cooling Degree Days16.2 (Base 65)
Growing Degree Days31.2 (Base 50)
Averaged from 23 records on January 14, 2013
WEATHER CONDITIONS BREAKOUT
WIND DIRECTION BREAKOUT
WEATHER BY HOUR - JANUARY 14, 2013
[ °C ]   °F
Local TimeTemperatureDewpointHumidityBarometerVisibilityWind DirectionWind SpeedGust SpeedPrecipitationEventsConditions
1:54 AM79.0 °F72.0 °F79 %29.86 in10.0 miEast (80°)6.9 mphPartly Cloudy
2:54 AM79.0 °F72.0 °F79 %29.84 in10.0 miENE (70°)9.2 mphScattered Clouds
3:54 AM78.1 °F73.0 °F84 %29.85 in10.0 miEast (80°)10.4 mph0.01 inMostly Cloudy
4:54 AM79.0 °F72.0 °F79 %29.85 in10.0 miENE (70°)13.8 mphMostly Cloudy
5:54 AM78.1 °F72.0 °F81 %29.85 in10.0 miENE (70°)11.5 mphPartly Cloudy
7:54 AM80.1 °F72.0 °F76 %29.87 in10.0 miEast (80°)13.8 mphPartly Cloudy
8:54 AM82.0 °F72.0 °F71 %29.88 in10.0 miENE (70°)16.1 mphClear
9:54 AM82.9 °F72.0 °F69 %29.87 in10.0 miENE (70°)18.4 mph24.2 mphPartly Cloudy
10:54 AM84.0 °F72.0 °F67 %29.86 in10.0 miEast (80°)17.3 mph25.3 mphPartly Cloudy
11:54 AM84.0 °F72.0 °F67 %29.85 in10.0 miEast (80°)17.3 mph24.2 mphPartly Cloudy
12:54 PM84.0 °F71.1 °F65 %29.83 in10.0 miEast (90°)15.0 mphScattered Clouds
1:31 PM84.2 °F73.4 °F70 %29.84 in10.0 miESE (110°)15.0 mphMostly Cloudy
1:34 PM84.2 °F73.4 °F70 %29.83 in10.0 miEast (100°)17.3 mph23.0 mphPartly Cloudy
2:54 PM84.0 °F72.0 °F67 %29.81 in10.0 miEast (100°)12.7 mph21.9 mphPartly Cloudy
3:54 PM84.0 °F71.1 °F65 %29.82 in10.0 miESE (110°)11.5 mphPartly Cloudy
4:54 PM82.9 °F71.1 °F67 %29.83 in10.0 miEast (100°)10.4 mphClear
5:54 PM81.0 °F71.1 °F72 %29.85 in10.0 miEast (90°)9.2 mphPartly Cloudy
6:54 PM80.1 °F71.1 °F74 %29.86 in10.0 miEast (80°)5.8 mphPartly Cloudy
7:54 PM79.0 °F71.1 °F77 %29.86 in10.0 miEast (90°)4.6 mphClear
8:54 PM79.0 °F72.0 °F79 %29.87 in10.0 miEast (100°)5.8 mphPartly Cloudy
9:54 PM79.0 °F72.0 °F79 %29.87 in10.0 miESE (110°)5.8 mphScattered Clouds
10:54 PM79.0 °F72.0 °F79 %29.87 in10.0 miESE (110°)6.9 mphClear
11:54 PM78.1 °F72.0 °F81 %29.87 in10.0 miESE (120°)3.5 mphClear
Hourly data recorded from PGUM, located miles away from Agana, Guam







STORIES FROM OUR PARTNERS